Location: Kerb�bon
(47.7970°N, 3.3487°W)
Time: 12:14:03
(UTC+00:00)

Cosmos 2154 Rocket - Pass Details

Date: 12 May 2021
Orbit: 965 x 997 km, 82.9° (Epoch: 18 June)

Event Time Altitude Azimuth Distance (km) Brightness Sun altitude
Rises 21:24:15 0° 354° (N) 3,722 8.0 -14.2°
Reaches altitude 10° 21:26:53 10° 359° (N) 2,765 7.1 -14.5°
Maximum altitude 21:33:04 52° 75° (ENE) 1,207 4.3 -15.1°
Enters shadow 21:36:55 23° 143° (SE) 1,965 5.0 -15.5°
